Flag for Japan Weather past 2 weeks in Yokosuka, Japan

Now
77 °F

Passing clouds.


Feels Like: 79 °F
Forecast: 65 / 75 °F
Wind: 7 mph from Southeast

Location: Tokyo International Airport

Current Time: Sep 22, 2014 at 2:20:16 PM

Latest Report: Sep 22, 2014 at 2:00 PM


Visibility: N/A

Pressure: 29.98 "Hg

Humidity: 47%

Dew point: 55 °F

Location of YokosukaLocation

Historic Weather in Yokosuka — Graph

°F

Yokosuka temperature yesterday

Maximum temperature yesterday: 75 °F (at 1:00 PM)
Minimum temperature yesterday: 63 °F (at 4:30 AM)
Average temperature yesterday: 69 °F

Past Weeks' High & Low Weather Summary

 TemperatureHumidityPressure
High82 °F (Sep 16, 1:00 PM)94% (Sep 7, 1:00 PM)30.07 "Hg (Sep 7, 1:00 PM)
Low63 °F (Sep 21, 4:30 AM)31% (Sep 18, 7:30 PM)29.62 "Hg (Sep 9, 2:00 AM)
Average72 °F71%29.85 "Hg
* Reported Sep 7 1:00 PM — Sep 22 1:00 PM, Yokosuka, Weather by CustomWeather, © 2014

Note: Actual official high and low records may vary slightly from our data, if they occured in-between our weather recording intervals... More about our weather records

Advertising

Yokosuka weather history for previous 24 hours

 ConditionsComfort  
Time TempWeatherWind HumidityBarometerVisibility
1:00 PM
Sep 22
77 °FPassing clouds.8 mph57%29.98 "HgN/A
12:30 PM77 °FPassing clouds.9 mph57%29.98 "HgN/A
12:00 PM75 °FPassing clouds.8 mph61%30.01 "HgN/A
11:30 AM73 °FPassing clouds.10 mph69%30.01 "HgN/A
11:00 AM73 °FPassing clouds.9 mph69%30.01 "HgN/A
10:30 AM72 °FPassing clouds.7 mph69%30.01 "HgN/A
10:00 AM72 °FScattered clouds.6 mph69%30.04 "HgN/A
9:30 AM72 °FScattered clouds.7 mph73%30.04 "HgN/A
9:00 AM72 °FScattered clouds.5 mph69%30.04 "HgN/A
8:30 AM68 °FScattered clouds.6 mph73%30.04 "HgN/A
8:00 AM70 °FScattered clouds.5 mph73%30.07 "HgN/A
7:30 AM68 °FPartly sunny.5 mph78%30.04 "HgN/A
7:00 AM68 °FPartly sunny.6 mph78%30.04 "HgN/A
6:30 AM68 °FPartly sunny.3 mph83%30.04 "HgN/A
6:00 AM68 °FPartly sunny.6 mph83%30.04 "HgN/A
5:30 AM68 °FPartly sunny.3 mph83%30.04 "HgN/A
5:00 AM68 °FPassing clouds.3 mph83%30.01 "HgN/A
4:30 AM68 °FPassing clouds.2 mph83%30.01 "HgN/A
4:00 AM68 °FPassing clouds.2 mph78%30.01 "HgN/A
3:30 AM68 °FPassing clouds.2 mph78%30.01 "HgN/A
3:00 AM68 °FPassing clouds.3 mph78%30.01 "HgN/A
2:30 AM68 °FPassing clouds.2 mph78%30.01 "HgN/A
2:00 AM68 °FPassing clouds.2 mph78%30.01 "HgN/A
1:30 AM66 °FPassing clouds.3 mph83%30.01 "HgN/A
1:00 AM68 °FPassing clouds.5 mph78%30.01 "HgN/A
12:30 AM66 °FPassing clouds.6 mph83%30.01 "HgN/A
12:00 AM66 °FClear.5 mph83%30.04 "Hg10 mi
11:30 PM
Sep 21
68 °FClear.3 mph78%30.04 "Hg10 mi
11:00 PM68 °FPassing clouds.3 mph73%30.04 "HgN/A
10:30 PM68 °FPassing clouds.6 mph78%30.04 "HgN/A
10:00 PM68 °FPassing clouds.8 mph78%30.04 "HgN/A
9:30 PM68 °FPassing clouds.8 mph73%30.04 "HgN/A
9:00 PM68 °FPassing clouds.8 mph73%30.04 "HgN/A
8:30 PM66 °FClear.8 mph73%30.04 "Hg10 mi
8:00 PM68 °FClear.8 mph64%30.04 "Hg10 mi
7:30 PM68 °FClear.10 mph60%30.04 "Hg10 mi
7:00 PM70 °FPassing clouds.12 mph60%30.04 "HgN/A
6:30 PM70 °FPassing clouds.14 mph69%30.01 "HgN/A
6:00 PM72 °FPassing clouds.16 mph69%30.01 "HgN/A
5:30 PM72 °FScattered clouds.15 mph65%29.98 "HgN/A
5:00 PM73 °FPartly sunny.15 mph57%29.98 "HgN/A
4:30 PM75 °FPartly sunny.14 mph54%29.98 "HgN/A
4:00 PM75 °FPartly sunny.8 mph54%29.98 "HgN/A
3:30 PM75 °FPartly sunny.6 mph50%29.98 "HgN/A
3:00 PM75 °FPartly sunny.6 mph47%29.95 "HgN/A
2:30 PM75 °FScattered clouds.3 mph47%29.98 "HgN/A
2:00 PM75 °FScattered clouds.6 mph47%29.98 "HgN/A
Weather by CustomWeather, © 2014

See weather overviewHow to use our weather pages